This demonstration page uses our WeatherBlox Daily Observations layout. Learn more.

Left ArrowRight Arrow

Hourly Observations for September 3, 2022

Temp ( °F °C ) Dew Point ( °F °C ) Humidity (%) Winds ( mph kmh ) Pressure ( in mb ) Visibility ( mi km ) Precip ( " mm )
12:53 am 00:53 Clear 74 23.3 68 20 82 82 Calm 30.10 1019 10 16 0.00 0.00
1:53 am 01:53 Clear 71 21.7 69 20.6 93 93 Calm 30.11 1020 10 16 0.00 0.00
2:53 am 02:53 Clear 69 20.6 67 19.4 93 93 Calm 30.11 1020 10 16 0.00 0.00
3:53 am 03:53 Clear 68 20 67 19.4 96 96 Calm 30.11 1020 8 13 0.00 0.00
4:53 am 04:53 Mostly Clear 68 20 66 18.9 93 93 Calm 30.11 1020 8 13 0.00 0.00
5:53 am 05:53 Mostly Clear 69 20.6 67 19.4 93 93 Calm 30.11 1020 8 13 0.00 0.00
6:28 am 06:28 Mostly Clear with Nearby Thunderstorms 69 20.6 67 19.4 93 93 Calm 30.11 1019 9 14 0.00 0.00
6:53 am 06:53 Mostly Cloudy 69 20.6 68 20 96 96 Calm 30.11 1020 8 13 0.00 0.00
7:18 am 07:18 Mostly Cloudy with Nearby Thunderstorms 70 21.1 68 20 93 93 Calm 30.12 1020 9 14 0.01 0.13
7:35 am 07:35 Mostly Sunny 70 21.1 68 20 93 93 Calm 30.12 1020 8 13 0.01 0.13
7:53 am 07:53 Partly Cloudy with Nearby Thunderstorms 70 21.1 68 20 93 93 Calm 30.13 1020 9 14 0.01 0.13
8:20 am 08:20 Cloudy with Thunderstorms 71 21.7 69 20.6 93 93 VRB 6 9 30.18 1022 2 2 0.10 2.54
8:26 am 08:26 Cloudy with Strong Thunderstorms 71 21.7 69 20.6 93 93 W 9 15 30.18 1022 1 1 0.39 9.91
8:34 am 08:34 Cloudy with Strong Thunderstorms 70 21.1 68 20 93 93 WNW 6 9 30.18 1022 1 2 0.48 12.19
8:42 am 08:42 Cloudy with Strong Thunderstorms 69 20.6 67 19.4 93 93 VRB 3 6 30.19 1022 2 2 0.57 14.48
8:53 am 08:53 Cloudy with Strong Thunderstorms 68 20 67 19.4 96 96 Calm 30.17 1022 3 4 0.62 15.75
9:00 am 09:00 Cloudy with Thunderstorms 69 20.6 67 19.4 93 93 ENE 3 6 30.16 1021 5 8 0.01 0.25
9:08 am 09:08 Cloudy with Nearby Thunderstorms 69 20.6 67 19.4 93 93 NNE 3 6 30.16 1021 6 10 0.02 0.51
9:18 am 09:18 Cloudy with Thunderstorms 69 20.6 67 19.4 93 93 Calm 30.16 1021 5 8 0.03 0.76
9:33 am 09:33 Cloudy with Nearby Thunderstorms 69 20.6 67 19.4 93 93 Calm 30.16 1021 10 16 0.03 0.76
9:48 am 09:48 Cloudy with Light Rain 70 21 68 20 94 94 E 5 7 30.14 1021 9 14 0.04 1.02
9:53 am 09:53 Cloudy with Light Rain 70 21.1 68 20 93 93 Calm 30.15 1021 10 16 0.04 1.02
10:53 am 10:53 Cloudy with Light Rain 72 22.2 69 20.6 91 91 E 6 9 30.17 1022 10 16 0.01 0.13
11:53 am 11:53 Cloudy with Light Rain 72 22.2 70 21.1 93 93 Calm 30.19 1023 6 10 0.03 0.76
12:03 pm 12:03 Cloudy with Light Rain 72 22.2 70 21.1 93 93 Calm 30.18 1022 3 4 0.02 0.51
12:11 pm 12:11 Cloudy with Light Rain 72 22.2 70 21.1 93 93 ESE 5 7 30.18 1022 9 14 0.02 0.51
12:35 pm 12:35 Cloudy with Light Rain 72 22.2 69 20.6 91 91 Calm 30.18 1022 2 3 0.05 1.27
12:43 pm 12:43 Cloudy with Light Rain 72 22.2 70 21.1 93 93 Calm 30.18 1022 10 16 0.05 1.27
12:53 pm 12:53 Cloudy 72 22.2 69 20.6 91 91 Calm 30.19 1022 10 16 0.05 1.27
1:29 pm 13:29 Cloudy with Rain 71 21.7 69 20.6 93 93 Calm 30.18 1022 2 3 0.11 2.79
1:36 pm 13:36 Cloudy with Heavy Rain 70 21.1 68 20 93 93 N 3 6 30.18 1022 1 2 0.21 5.33
1:45 pm 13:45 Cloudy with Light Rain 70 21.1 67 19.4 90 90 NNE 6 9 30.17 1022 3 4 0.23 5.84
1:53 pm 13:53 Cloudy with Light Rain 70 21.1 67 19.4 90 90 ENE 5 7 30.18 1022 10 16 0.23 5.84
2:11 pm 14:11 Cloudy with Light Rain 69 20.6 67 19.4 93 93 E 8 13 30.17 1022 3 4 0.07 1.78
2:30 pm 14:30 Cloudy with Light Rain 69 20.6 67 19.4 93 93 NNW 7 11 30.17 1022 8 13 0.12 3.05
2:53 pm 14:53 Cloudy 69 20.6 66 18.9 90 90 Calm 30.18 1022 10 16 0.12 3.05
3:10 pm 15:10 Cloudy with Heavy Rain 69 20.6 67 19.4 93 93 Calm 30.17 1022 2 2 0.05 1.27
3:33 pm 15:33 Cloudy with Light Rain 69 20.6 67 19.4 93 93 NW 3 6 30.16 1021 2 3 0.15 3.81
3:43 pm 15:43 Cloudy 69 20.6 67 19.4 93 93 NW 3 6 30.16 1021 10 16 0.15 3.81
3:53 pm 15:53 Cloudy 70 21.1 67 19.4 90 90 NW 3 6 30.16 1021 10 16 0.15 3.81
4:19 pm 16:19 Cloudy 70 21.1 67 19.4 90 90 N 6 9 30.14 1021 10 16 0.00 0.00
4:53 pm 16:53 Cloudy with Light Rain 70 21.1 67 19.4 90 90 Calm 30.14 1021 10 16 0.01 0.13
5:19 pm 17:19 Cloudy with Thunderstorms 70 21.1 67 19.4 90 90 Calm 30.13 1020 10 16 0.01 0.25
5:34 pm 17:34 Cloudy with Rain 70 21.1 67 19.4 90 90 Calm 30.12 1020 7 11 0.02 0.51
5:53 pm 17:53 Cloudy with Light Rain 69 20.6 68 20 96 96 Calm 30.12 1020 4 6 0.05 1.27
6:44 pm 18:44 Cloudy with Heavy Rain 69 20.6 68 20 96 96 Calm 30.12 1020 2 2 0.10 2.54
6:53 pm 18:53 Cloudy with Heavy Rain 69 20.6 68 20 96 96 Calm 30.12 1020 3 4 0.13 3.30
7:10 pm 19:10 Cloudy with Rain 69 20.6 68 20 96 96 Calm 30.12 1020 2 3 0.06 1.52
7:20 pm 19:20 Cloudy with Heavy Rain 70 21.1 68 20 93 93 Calm 30.12 1020 1 1 0.12 3.05
7:33 pm 19:33 Cloudy with Rain 70 21.1 68 20 93 93 Calm 30.12 1020 2 3 0.17 4.32
7:40 pm 19:40 Cloudy with Rain 70 21.1 68 20 93 93 Calm 30.11 1020 3 4 0.18 4.57
7:53 pm 19:53 Mostly Cloudy with Light Rain 69 20.6 68 20 96 96 Calm 30.11 1020 4 6 0.20 5.08
8:53 pm 20:53 Mostly Clear with Light Rain 70 21.1 68 20 93 93 Calm 30.09 1019 7 11 0.03 0.76
9:53 pm 21:53 Clear 70 21.1 69 20.6 97 97 Calm 30.09 1019 10 16 0.01 0.25
10:53 pm 22:53 Mostly Clear 70 21.1 69 20.6 97 97 Calm 30.11 1020 7 11 0.00 0.00
11:53 pm 23:53 Mostly Clear with Light Rain 69 20.6 68 20 96 96 Calm 30.10 1019 8 13 0.01 0.25

Powered by AerisWeather